AB8YS Weather Reports


Display with metric or nautical units.
time (UTC)temp
F
wind
direction
speed
MPH
gust
MPH
rain 1hr
in
rain 24hr
in
rain mn
in
humidity
%
barometer
mb
20260504010011 50 280 0.0 0.0 0.00 0.00 0.00 77 1013.4
20260504004513 50 26 0.0 1.0 0.00 0.00 0.00 76 1013.5
20260504003009 50 356 0.0 1.0 0.00 0.00 0.00 74 1013.2
20260504001521 50 356 0.0 1.0 0.00 0.00 0.00 73 1013.3
20260504000009 51 307 0.0 1.0 0.00 0.00 0.00 72 1013.1
20260503234508 51 56 0.0 2.0 0.00 0.00 0.00 71 1012.9
20260503233011 51 37 0.0 2.0 0.00 0.00 0.00 72 1013.1
20260503231505 51 55 0.0 2.0 0.00 0.00 0.00 73 1013.5
20260503230011 51 79 0.0 0.0 0.00 0.00 0.00 72 1014.0
20260503224501 51 46 0.0 6.0 0.00 0.00 0.00 70 1014.3
20260503223101 51 11 0.0 2.0 0.00 0.00 0.00 67 1014.6
20260503221608 51 32 0.0 5.0 0.00 0.00 0.00 69 1014.9
20260503220058 51 27 0.0 3.0 0.00 0.00 0.00 72 1014.8
20260503214557 50 75 0.0 2.0 0.00 0.00 0.00 73 1014.9
20260503213054 50 66 0.0 2.0 0.00 0.00 0.00 71 1015.0
20260503211553 51 68 0.0 2.0 0.00 0.00 0.00 69 1015.6
20260503210052 53 264 0.0 5.0 0.00 0.00 0.00 63 1016.1
20260503204614 56 347 0.0 7.0 0.00 0.00 0.00 53 1016.2
20260503203054 59 265 0.0 3.0 0.00 0.00 0.00 38 1015.7
20260503201551 59 262 0.0 2.0 0.00 0.00 0.00 39 1015.5
20260503200049 60 261 0.0 3.0 0.00 0.00 0.00 39 1015.5
20260503194548 61 252 0.0 8.0 0.00 0.00 0.00 39 1015.7
20260503193049 62 294 1.0 7.0 0.00 0.00 0.00 38 1016.0
20260503191606 62 269 0.0 4.0 0.00 0.00 0.00 39 1016.2
20260503190046 62 271 0.0 4.0 0.00 0.00 0.00 35 1016.5
20260503184541 62 269 0.0 3.0 0.00 0.00 0.00 38 1016.7
20260503183039 62 264 0.0 3.0 0.00 0.00 0.00 36 1017.0
20260503181547 62 22 1.0 6.0 0.00 0.00 0.00 37 1017.2
20260503180039 62 266 1.0 5.0 0.00 0.00 0.00 38 1017.4
20260503174544 62 216 1.0 6.0 0.00 0.00 0.00 37 1017.5
20260503173032 62 268 0.0 3.0 0.00 0.00 0.00 41 1017.9
20260503171531 61 262 0.0 4.0 0.00 0.00 0.00 44 1017.9
20260503081504 34 259 0.0 0.0 0.00 0.00 0.00 92 1018.4
20260503071614 34 260 0.0 0.0 0.00 0.00 0.00 92 1018.4
20260503054607 34 259 0.0 0.0 0.00 0.00 0.00 90 1018.8
20260503053050 35 260 0.0 0.0 0.00 0.00 0.00 90 1018.9
20260503051550 35 259 0.0 0.0 0.00 0.00 0.00 90 1018.8
20260503050048 35 259 0.0 0.0 0.00 0.00 0.00 89 1018.9
20260503044547 35 259 0.0 0.0 0.00 0.00 0.00 90 1018.9
20260503043053 35 260 0.0 0.0 0.00 0.00 0.00 90 1018.9
20260503041544 35 260 0.0 0.0 0.00 0.00 0.00 90 1018.8
20260503040041 35 260 0.0 0.0 0.00 0.00 0.00 89 1018.8
20260503034546 36 260 0.0 0.0 0.00 0.00 0.00 88 1018.8
20260503033041 36 260 0.0 0.0 0.00 0.00 0.00 86 1018.8
20260503031540 36 260 0.0 0.0 0.00 0.00 0.00 85 1018.8
20260503030040 37 260 0.0 0.0 0.00 0.00 0.00 83 1018.9
20260503024539 37 260 0.0 0.0 0.00 0.00 0.00 81 1018.9
20260503023038 38 260 0.0 0.0 0.00 0.00 0.00 79 1018.9
20260503021537 39 259 0.0 0.0 0.00 0.00 0.00 76 1018.9
20260503020036 39 260 0.0 0.0 0.00 0.00 0.00 74 1018.9
20260503014536 40 260 0.0 0.0 0.00 0.00 0.00 71 1018.7
20260503013041 41 260 0.0 0.0 0.00 0.00 0.00 67 1018.6
20260503011536 42 260 0.0 0.0 0.00 0.00 0.00 64 1018.5